This is the latest recevied weather packets stored in our database for station/object FW0690. If no packets are shown the sender has not sent any weather packets the latest 10 day(s).
| Time | Temp. | Humidity | Pressure | Rain* | Wind** | Luminosity | Snow |
|---|---|---|---|---|---|---|---|
| 1777702115 | 10.56° C | 56% | 1021.2 hPa | - | - | 27 W/m² | - |
| 1777701755 | 10.56° C | 56% | 1021.2 hPa | - | - | 25 W/m² | - |
| 1777701395 | 10.56° C | 56% | 1021.2 hPa | - | - | 19 W/m² | - |
| 1777701035 | 10° C | 56% | 1021.1 hPa | - | - | 20 W/m² | - |
| 1777700675 | 10° C | 56% | 1021.2 hPa | - | - | 18 W/m² | - |
| 1777700315 | 9.44° C | 56% | 1021.2 hPa | - | - | 16 W/m² | - |
| 1777699955 | 9.44° C | 56% | 1021.1 hPa | - | - | 12 W/m² | - |
| 1777699595 | 9.44° C | 56% | 1021.3 hPa | - | - | 5 W/m² | - |
| 1777699235 | 9.44° C | 56% | 1021.3 hPa | - | - | 6 W/m² | - |
| 1777698875 | 9.44° C | 56% | 1021.3 hPa | - | - | 8 W/m² | - |
| 1777698515 | 9.44° C | 56% | 1021.2 hPa | - | - | 8 W/m² | - |
| 1777698154 | 9.44° C | 56% | 1021.3 hPa | - | - | 5 W/m² | - |
| 1777697794 | 8.89° C | 56% | 1021.4 hPa | - | - | 6 W/m² | - |
| 1777697434 | 8.89° C | 56% | 1021.3 hPa | - | - | 5 W/m² | - |
| 1777697074 | 8.89° C | 56% | 1021.2 hPa | - | - | 4 W/m² | - |
| 1777696714 | 8.89° C | 56% | 1021.3 hPa | - | - | 3 W/m² | - |
| 1777696354 | 8.89° C | 56% | 1021.3 hPa | - | - | 3 W/m² | - |
| 1777695995 | 8.89° C | 56% | 1021.3 hPa | - | - | 3 W/m² | - |
| 1777695635 | 8.89° C | 56% | 1021.4 hPa | - | - | 3 W/m² | - |
| 1777695274 | 8.89° C | 56% | 1021.4 hPa | - | - | 4 W/m² | - |
| 1777694914 | 8.89° C | 55% | 1021.4 hPa | - | - | 4 W/m² | - |
| 1777694554 | 8.89° C | 55% | 1021.3 hPa | - | - | 3 W/m² | - |
| 1777694195 | 8.89° C | 55% | 1021.3 hPa | - | - | 2 W/m² | - |
| 1777693835 | 8.89° C | 54% | 1021.3 hPa | - | - | 1 W/m² | - |
| 1777693474 | 8.89° C | 54% | 1021.2 hPa | - | - | 1 W/m² | - |
* Rain since midnight (hover to see other rain measurements)
** Current wind speed in m/s (hover to see current wind gust speed)